Theta_e
333 333 333 333 333 333 333 332 329 326 324 323 321 319 318 317 316 317 318 319 326 333 332 332 336 338 336 335 335 337 337 337 337 337 336 336 336 334 333 331 331 330 329
330 333 333 334 332 333 332 331 328 325 323 323 320 319 318 317 315 315 318 319 323 329 332 333 335 336 337 338 337 337 337 337 337 336 336 336 336 335 334 333 333 332 330
321 324 332 333 333 333 331 329 327 326 323 322 321 319 318 316 315 315 316 317 320 322 327 332 333 335 336 336 337 337 337 337 337 336 336 336 335 335 334 334 334 333 332
319 321 324 329 332 333 331 329 326 324 322 321 320 319 317 315 314 314 314 316 317 319 322 328 331 334 334 334 336 336 337 336 337 336 336 336 335 335 335 334 334 333 333
320 321 325 327 329 331 330 329 326 324 322 320 320 315 314 313 313 314 313 313 315 316 316 321 324 325 331 332 333 335 336 336 336 335 335 335 335 335 334 334 334 334 333
315 319 325 327 327 329 328 327 326 325 323 321 320 315 310 310 310 310 311 313 313 315 316 316 318 319 321 329 331 332 334 335 335 334 334 335 335 335 334 334 334 334 334
314 319 323 325 326 326 327 327 326 323 319 320 316 313 309 308 308 309 310 311 310 312 313 316 317 317 318 323 328 330 331 332 333 333 333 334 333 333 332 332 333 333 333
314 317 318 322 324 326 326 326 324 321 320 319 314 313 307 308 308 310 310 310 310 311 312 314 315 316 316 316 319 327 329 330 332 333 332 333 333 333 332 332 332 330 329
312 314 315 317 321 323 323 325 325 322 318 318 318 313 306 305 307 310 309 310 311 310 312 312 314 316 317 317 318 320 322 324 328 331 332 332 332 332 331 331 330 328 328
311 313 314 315 319 322 321 323 324 323 321 316 318 316 314 313 308 306 309 310 310 310 311 311 313 315 316 317 314 312 313 318 321 326 328 330 331 331 330 331 329 328 327
311 313 313 314 318 321 323 322 321 322 322 320 317 314 313 311 312 309 305 307 310 310 311 311 312 313 314 316 316 314 312 316 317 319 322 325 328 330 329 329 328 327 326
309 310 312 313 315 319 320 323 324 323 322 321 319 317 315 312 311 309 307 308 308 309 311 309 309 311 312 314 312 308 310 314 316 316 317 319 321 325 327 326 326 326 325
308 307 309 310 314 314 318 320 323 323 323 321 319 317 318 317 317 315 313 310 308 311 310 309 307 307 307 307 306 301 304 310 314 315 315 315 317 318 320 322 323 323 323
304 306 308 309 309 312 312 318 320 322 322 321 319 319 318 318 318 316 315 313 308 309 307 305 297 297 298 299 299 299 306 307 312 314 314 314 314 315 316 317 319 320 322
306 302 303 304 306 306 308 312 318 319 321 321 320 319 318 317 317 316 316 314 312 306 307 299 297 293 294 296 296 302 304 301 308 310 311 311 312 313 314 316 319 320 317
302 301 297 299 299 300 305 308 314 319 319 318 318 317 317 316 316 317 316 316 315 313 307 295 289 290 292 293 293 298 298 298 301 305 306 307 309 309 310 311 312 312 312
298 299 296 296 298 298 299 304 307 316 315 313 311 314 310 310 310 311 311 313 313 313 308 287 288 288 287 288 289 291 293 296 298 300 302 303 304 305 306 307 307 307 307
295 295 295 294 295 296 297 300 300 305 303 299 299 300 298 299 298 299 300 299 300 299 297 286 285 285 285 285 286 287 288 290 294 298 300 300 300 300 300 301 301 301 302
292 293 293 292 292 292 293 293 295 296 295 295 296 295 294 295 294 294 294 293 293 293 293 288 284 285 285 285 285 286 286 286 288 291 294 296 297 297 297 297 297 297 296
290 289 289 289 290 290 290 289 290 290 289 289 290 291 292 292 292 292 291 291 291 289 289 286 285 284 284 284 285 285 283 284 284 286 288 289 291 293 294 293 293 293 294
287 287 287 287 288 289 289 288 288 288 287 286 286 287 287 288 289 291 291 290 289 287 286 285 284 284 284 284 284 284 282 282 281 282 282 283 283 282 283 286 288 290 292
285 286 285 285 285 286 288 289 286 287 286 285 284 284 285 286 287 288 289 291 290 288 286 285 285 284 284 284 284 283 282 281 280 281 280 279 281 279 280 281 287 288 290
284 284 284 284 284 285 286 286 285 284 284 283 283 283 282 283 283 284 285 285 285 288 288 285 285 283 283 284 284 283 283 282 280 279 280 278 279 278 279 281 286 289 289
283 283 283 284 284 284 286 285 284 283 282 282 282 283 282 282 282 282 282 282 282 282 281 281 280 280 281 282 283 283 281 278 278 278 279 276 275 274 277 280 287 289 289
282 282 283 283 283 284 286 285 283 282 282 281 282 282 282 281 284 283 280 279 279 280 285 285 285 285 285 285 283 281 279 279 276 274 274 273 271 271 274 276 282 289 288
282 283 283 283 284 284 286 285 283 282 280 280 281 282 283 282 283 282 279 278 276 277 277 277 277 277 278 278 279 277 277 271 269 268 272 271 270 270 268 276 278 281 283
Wind_Speed
9 8 8 8 9 9 10 10 9 8 9 10 10 11 10 8 7 4 4 14 13 14 16 19 18 15 18 18 17 16 16 14 17 18 18 18 17 16 14 16 16 16 16
8 9 10 10 10 11 11 11 11 10 9 9 9 11 10 9 7 6 5 7 14 13 15 18 17 12 16 17 16 16 16 16 15 19 19 18 18 18 19 19 19 18 17
8 8 7 9 13 12 15 12 11 10 9 8 11 9 9 9 8 7 6 5 8 13 14 16 17 16 15 15 16 17 17 17 16 17 20 19 20 20 20 20 20 20 20
9 7 7 10 9 6 13 12 13 12 11 11 9 8 8 9 7 6 5 5 5 6 9 14 16 16 17 17 16 17 17 16 14 15 18 20 21 21 21 21 21 22 22
7 8 6 6 8 8 6 11 11 14 12 11 11 5 6 6 6 5 6 7 7 6 5 11 14 13 14 17 19 19 18 17 14 12 13 18 20 22 22 22 22 23 24
7 8 8 9 8 9 9 7 10 9 10 9 9 6 4 4 5 5 6 5 6 7 7 8 7 9 14 18 19 20 20 19 15 13 13 13 15 16 20 22 24 25 26
9 9 8 8 9 9 8 12 12 12 5 5 5 2 2 4 6 6 5 7 6 7 7 7 6 5 7 19 19 21 21 21 18 16 14 14 15 13 9 7 14 18 17
10 9 8 7 8 7 11 13 12 8 6 13 7 7 4 1 5 9 7 8 11 6 8 9 9 8 7 6 11 20 22 22 20 18 17 16 15 16 17 16 13 12 12
9 8 7 8 8 7 7 13 14 13 10 10 13 6 4 4 3 3 9 9 12 8 10 10 10 10 10 8 9 13 18 20 21 20 19 18 17 17 18 17 13 12 12
8 8 8 7 9 8 8 9 11 12 10 10 8 3 3 6 5 1 3 9 8 9 10 6 10 11 11 8 10 12 14 16 18 19 19 18 17 18 18 17 15 14 13
7 8 6 6 7 8 11 12 13 14 12 12 12 9 7 3 3 4 3 3 5 8 9 9 9 8 8 9 9 10 16 16 16 16 16 16 17 17 18 18 16 15 15
5 6 5 5 5 7 10 12 13 17 16 16 12 12 12 9 7 5 3 3 7 5 9 7 8 7 7 8 8 11 15 16 15 15 14 14 14 15 17 17 16 16 17
3 5 5 5 2 3 6 8 14 13 14 14 18 14 12 11 6 8 7 4 3 3 3 2 1 2 3 2 3 2 7 10 12 11 11 11 11 10 11 15 17 17 16
2 1 2 4 5 4 2 9 7 10 13 15 17 12 10 11 9 5 7 7 4 4 1 3 3 3 2 3 3 3 3 6 6 8 10 10 11 11 11 14 16 17 15
3 2 2 5 5 6 6 4 9 10 11 15 15 16 11 7 6 6 7 5 6 3 5 1 2 3 3 2 3 1 2 2 5 5 6 7 9 9 13 16 10 12 17
5 4 3 4 5 6 8 4 9 13 12 8 8 13 11 6 8 6 6 5 6 6 4 1 3 3 5 4 7 6 7 10 12 14 15 14 14 16 17 17 16 18 19
3 3 3 4 4 5 6 7 7 12 11 8 6 9 8 6 5 5 5 4 7 6 3 2 2 4 5 5 7 8 8 8 9 16 18 18 18 17 16 16 16 14 15
3 3 4 4 3 4 5 4 3 6 10 9 6 8 6 4 7 5 4 3 4 3 4 4 2 2 4 4 5 9 7 8 8 15 19 18 20 18 19 18 18 17 16
3 3 3 3 2 4 3 3 4 2 11 10 10 10 9 8 6 4 5 5 3 4 4 5 4 2 2 3 5 6 7 8 8 16 18 17 17 17 16 15 15 15 15
4 3 3 3 2 5 2 2 8 6 14 12 11 12 11 9 6 5 7 6 6 6 6 8 5 4 3 3 3 4 5 5 5 6 12 13 14 14 13 12 12 10 10
6 4 3 5 6 7 3 7 7 2 15 16 14 15 15 14 18 9 5 6 8 7 7 7 5 4 4 3 4 2 4 3 4 3 4 4 5 4 4 7 6 7 10
8 7 9 9 10 7 9 14 14 7 16 16 16 14 14 13 17 25 25 18 11 8 9 4 5 7 5 4 4 4 4 2 2 2 2 3 2 2 3 3 4 7 9
10 10 11 12 12 11 18 22 13 9 13 13 17 11 12 8 11 12 23 23 22 23 15 5 10 4 4 3 6 5 3 2 2 2 2 2 2 2 3 3 2 7 10
11 11 12 13 14 13 25 26 18 10 14 16 15 14 12 11 12 13 15 16 16 15 13 9 10 7 6 5 5 3 4 5 5 3 3 2 2 2 3 3 7 9 13
12 12 12 17 13 14 22 16 10 7 16 18 15 13 13 14 18 18 14 16 14 13 18 22 21 21 19 15 7 5 3 3 2 1 3 3 1 1 2 2 5 12 13
12 11 15 14 15 14 20 16 8 7 13 12 14 16 24 15 21 18 11 10 11 7 7 8 7 13 13 13 17 8 2 3 3 2 2 3 1 2 1 1 2 3 4
Wind_Direction
222 217 210 204 197 188 190 187 182 182 184 181 180 181 188 197 205 205 183 191 189 198 207 212 223 221 208 209 209 206 205 202 203 196 198 202 201 200 208 212 214 215 213
288 217 218 209 202 194 187 188 182 180 188 185 187 192 190 196 197 197 195 192 186 194 198 213 230 221 216 209 210 207 213 213 208 207 207 206 209 208 206 207 212 218 223
269 285 254 236 208 199 195 183 182 179 181 193 195 191 187 198 199 185 178 184 194 192 194 209 223 231 228 219 218 217 219 225 221 214 214 217 217 216 214 215 213 215 222
256 262 257 253 262 212 196 190 181 181 186 194 199 194 183 188 194 195 172 180 189 195 203 207 213 222 228 232 233 227 220 221 228 228 222 218 221 223 223 222 220 218 224
246 254 251 230 218 222 233 198 187 186 188 193 202 180 173 179 180 186 204 191 192 190 188 210 212 216 223 228 232 235 230 225 230 227 227 224 223 227 228 231 230 227 227
233 251 251 244 219 219 205 174 197 216 195 194 194 183 177 173 175 196 204 210 203 198 193 199 208 220 221 225 230 234 238 239 235 236 226 224 222 229 234 236 237 237 235
222 238 247 257 224 209 197 192 190 178 134 173 144 135 187 195 198 211 204 213 219 212 200 205 202 200 216 227 228 231 235 237 236 234 236 225 223 223 222 226 241 244 257
221 222 235 251 243 223 205 182 175 179 169 165 161 160 164 206 237 223 205 214 219 212 219 215 209 205 207 206 218 228 234 238 239 236 235 233 231 232 237 240 245 250 263
211 210 219 243 250 226 204 197 179 186 188 180 166 160 138 190 173 195 220 213 215 211 223 220 214 214 212 212 206 215 220 230 237 239 237 235 233 236 239 236 240 249 259
205 206 203 238 251 239 206 206 199 187 158 170 164 165 110 148 183 246 242 219 212 212 218 216 218 217 213 210 204 202 205 219 225 232 236 234 234 235 238 234 231 240 253
204 199 197 224 256 239 230 205 206 195 178 174 188 175 155 169 109 148 216 210 214 220 222 216 218 218 206 208 209 212 208 211 214 220 226 231 234 233 236 229 232 241 250
183 186 207 234 259 233 237 222 206 202 193 194 182 183 189 179 165 176 157 188 201 201 215 212 211 212 202 212 214 215 205 211 214 216 217 220 226 232 234 236 235 241 249
183 222 220 224 246 324 242 237 215 201 196 195 183 174 192 211 162 195 207 208 207 214 170 145 70 96 99 90 123 212 197 208 213 212 210 216 221 222 234 236 237 240 245
184 148 252 261 270 281 287 260 239 213 195 195 187 175 196 207 205 171 192 200 236 229 130 131 46 25 38 33 16 346 122 139 173 200 203 205 217 221 226 234 237 238 232
357 31 329 298 288 278 253 273 245 213 204 197 201 170 191 186 173 171 192 166 196 179 211 97 171 30 22 17 352 57 83 121 147 182 213 211 217 218 237 238 195 168 142
356 354 337 284 279 280 278 215 252 206 191 184 175 181 182 174 177 184 202 179 219 215 209 53 48 46 20 25 23 53 69 82 95 96 91 85 103 102 95 99 102 106 109
341 326 301 281 275 290 289 284 280 203 192 171 165 163 162 148 158 169 191 193 206 199 169 66 72 26 43 28 44 45 41 57 58 75 83 80 79 81 83 89 92 99 106
346 331 314 314 297 300 302 268 273 162 140 127 116 109 97 105 120 122 108 105 134 100 104 121 123 82 74 29 51 64 51 50 62 63 70 75 79 78 80 79 78 74 69
33 359 360 352 336 14 326 355 61 88 108 113 113 99 92 90 89 104 109 104 86 93 99 126 131 123 100 70 70 64 59 61 53 57 62 65 72 75 76 75 77 77 79
79 42 28 30 329 50 5 160 82 119 92 88 83 94 82 95 104 118 107 119 117 97 100 106 92 100 102 82 74 98 70 39 52 43 58 57 61 63 69 76 79 79 98
64 45 52 42 37 35 330 99 88 82 101 100 82 75 78 75 73 62 92 99 102 104 101 110 112 117 114 137 128 105 90 85 47 49 54 44 59 71 57 71 75 102 119
58 57 56 52 52 52 49 82 65 225 93 97 94 78 73 78 86 76 73 71 76 103 112 107 116 127 111 100 108 104 119 135 103 255 71 53 50 55 52 19 120 131 130
64 62 62 62 58 58 63 69 61 64 85 85 93 97 88 63 77 84 74 70 64 65 64 93 116 102 117 140 137 127 154 130 109 106 118 105 35 63 1 359 131 125 128
63 63 62 63 60 53 54 56 58 67 76 73 78 81 91 87 75 86 84 76 66 63 64 69 75 68 67 72 84 95 93 94 79 65 24 108 9 23 335 340 173 147 124
67 66 63 63 62 61 62 65 60 75 76 70 67 71 74 77 83 85 86 88 79 74 74 79 79 74 69 65 82 99 96 115 109 26 16 104 268 70 356 350 354 151 128
70 68 66 60 59 61 64 71 63 72 76 74 61 67 68 73 77 75 80 88 93 84 87 70 60 56 49 52 54 58 78 125 126 43 324 95 68 125 22 324 350 20 126